Regional Weather Roundup
Issued by NWS

Home | Current Version | Previous Version | Graphics & Text | Print | Product List | Glossary On
Versions: 1 2 3 4 5 6 7 8 9 10 11 12 13 14 15 16 17 18 19 20 21 22 23 24 25 26 27 28 29 30 31 32 33 34 35 36 37 38 39 40 41 42 43 44 45 46 47 48 49 50
000
ASUS45 KCYS 131110
RWRWY

WYOMING REGIONAL WEATHER ROUNDUP
NATIONAL WEATHER SERVICE CHEYENNE WY
400 AM MST WED DEC 13 2017

NOTE:  "FAIR" INDICATES FEW OR NO CLOUDS BELOW 12,000 FEET
WITH NO SIGNIFICANT WEATHER AND/OR OBSTRUCTIONS TO VISIBILITY.

WYZ001-131200-
YELLOWSTONE NATIONAL PARK

CITY           SKY/WX    TMP DP  RH WIND       PRES   REMARKS
LK YELLOWSTONE   N/A      9   6  88 CALM      30.32S
W YELLOWSTONE  NOT AVBL

$$
WYZ002>013-054>058-071-098>099-131200-
NORTHERN WYOMING

CITY           SKY/WX    TMP DP  RH WIND       PRES   REMARKS
JACKSON        CLOUDY    19  15  84 CALM      30.31F
CODY           FAIR      37   7  28 CALM      30.21S
GREYBULL       FAIR      41  12  30 NW13      30.16S
WORLAND        FAIR      27  17  66 SW7       30.18R WCI  19
SHERIDAN       FAIR      42  14  32 NW20      30.16F
BUFFALO        FAIR      43   8  23 NW21G32   30.14R
GILLETTE       FAIR      36  12  37 NW18      30.11R WCI  26
HULETT         FAIR      37  18  44 NW9       30.09R WCI  31
NEWCASTLE      FAIR      34  14  44 NW16      30.06R WCI  23

$$
WYZ014>020-022>026-101>103-131200-
CENTRAL WYOMING

CITY           SKY/WX    TMP DP  RH WIND       PRES   REMARKS
BIG PINEY      CLOUDY    20   4  50 CALM      30.26F
PINEDALE       CLOUDY    23   5  46 NW7       30.26S WCI  15
DUBOIS         CLOUDY    32   0  25 NW7       30.22F WCI  26
LANDER         FAIR      33  13  43 SW9       30.20R WCI  25
RIVERTON       FAIR      28  15  58 CALM      30.20S
CASPER         FAIR      32  19  58 S5        30.18R WCI  27
DOUGLAS        FAIR      34  16  47 NW13      30.14R WCI  25

$$
WYZ021-027>030-104>119-131200-
SOUTHERN WYOMING

CITY           SKY/WX    TMP DP  RH WIND       PRES   REMARKS
EVANSTON       FAIR      32   2  27 SW7       30.30S WCI  26
FORT BRIDGER   FAIR      34   2  25 W9        30.30F WCI  27
ROCK SPRINGS   CLOUDY    30   2  30 CALM      30.24R
DIXON          CLOUDY    17  11  76 E5        30.28F WCI  10
RAWLINS        CLOUDY    36   7  29 W9        30.21S WCI  29
SARATOGA       CLOUDY    28  14  54 E7        30.22S WCI  21
LARAMIE        MOCLDY    34   2  25 W16       30.15S WCI  24
CHEYENNE       MOCLDY    39   6  25 N15       30.12R WCI  31
TORRINGTON     FAIR      45  12  26 NW17G26   30.07R
PINE BLUFFS    CLOUDY    41   9  26 MISG      30.11R

$$



USA.gov is the U.S. government's official web portal to all federal, state and local government web resources and services.